カタログに戻る

CZ-6A DEB

運用中SSO
NORAD 54930·DEBRIS·🇨🇳 China

打ち上げ Nov 11, 2022 から Taiyuan Satellite Launch Center

Loading…

次のパス (今後24時間)

TLE

最新Source: Space-Track

元期: Sep 13, 2026, 01:51 UTC

1 54930U 22151RT  26256.07754476  .00004323  00000-0  62820-3 0  9996
2 54930  98.4238 307.1331 0089133 294.3657  64.8266 14.73833720203572

AllMySatでCZ-6A DEBをリアルタイム追跡

Download on the App Store